Overview Statistics Trail Chart Weather Telemetry Raw packets
 

This is the latest recevied weather packets stored in our database for station/object 4S6DRJ-13. If no packets are shown the sender has not sent any weather packets the latest 10 day(s).

<< 37 38 39 40 41 42 43 >>
Time Temp. Humidity Pressure Rain* Wind** Luminosity Snow
1788391062 27.78° C 85% 1008.9 hPa 0 mm 0.45 m/s, 231° 0 W/m² -
1788391001 27.78° C 85% 1008.6 hPa 0 mm 0 m/s 0 W/m² -
1788390940 27.78° C 85% 1008.6 hPa 0 mm 1.34 m/s, 221° 0 W/m² -
1788390879 27.78° C 85% 1008.8 hPa 0 mm 0.45 m/s, 225° 0 W/m² -
1788390818 27.78° C 85% 1008.8 hPa 0 mm 0.45 m/s, 207° 0 W/m² -
1788390757 27.78° C 85% 1008.5 hPa 0 mm 0.89 m/s, 216° 0 W/m² -
1788390697 27.78° C 85% 1008.6 hPa 0 mm 0.45 m/s, 342° 0 W/m² -
1788390635 27.78° C 85% 1008.8 hPa 0 mm 1.79 m/s, 212° 0 W/m² -
1788390574 27.78° C 85% 1008.6 hPa 0 mm 0.89 m/s, 238° 0 W/m² -
1788390514 27.78° C 85% 1008.6 hPa 0 mm 0 m/s 0 W/m² -
1788390452 27.78° C 85% 1008.6 hPa 0 mm 0 m/s 0 W/m² -
1788390391 27.78° C 85% 1008.4 hPa 0 mm 1.34 m/s, 221° 0 W/m² -
1788390331 27.78° C 85% 1008.7 hPa 0 mm 0.89 m/s, 225° 0 W/m² -
1788390269 27.78° C 85% 1008.5 hPa 0 mm 0.89 m/s, 215° 0 W/m² -
1788390208 27.78° C 85% 1008.6 hPa 0 mm 1.79 m/s, 258° 0 W/m² -
1788390147 27.78° C 85% 1008.8 hPa 0 mm 0.45 m/s, 240° 0 W/m² -
1788390086 27.78° C 85% 1008.6 hPa 0 mm 0.89 m/s, 8° 0 W/m² -
1788390025 27.78° C 85% 1008.7 hPa 0 mm 0.45 m/s, 220° 0 W/m² -
1788389964 27.78° C 85% 1008.6 hPa 0 mm 1.34 m/s, 223° 0 W/m² -
1788389903 27.78° C 85% 1008.5 hPa 0 mm 0.89 m/s, 281° 0 W/m² -
1788389842 27.78° C 85% 1008.6 hPa 0 mm 1.79 m/s, 261° 0 W/m² -
1788389781 27.78° C 85% 1008.5 hPa 0 mm 1.34 m/s, 225° 0 W/m² -
1788389720 27.78° C 85% 1008.7 hPa 0 mm 0.89 m/s, 221° 0 W/m² -
1788389659 27.78° C 85% 1008.6 hPa 0 mm 0.45 m/s, 233° 0 W/m² -
1788389598 27.78° C 85% 1008.7 hPa 0 mm 0 m/s 0 W/m² -

* Rain latest hour (hover to see other rain measurements)
** Current wind speed in m/s (hover to see current wind gust speed)